Weather History for Tekamah, NE

Change the Weather History Date:

Monday, January 2, 2012

  Actual Average Record
Temperature  
Mean Temperature 21 °F -  
Max Temperature 32 °F 30 °F 66 °F (1964)
Min Temperature 10 °F 11 °F -11 °F (2014)
Degree Days  
Heating Degree Days 44    
Moisture  
Dew Point 6 °F    
Average Humidity 54    
Maximum Humidity 77    
Minimum Humidity 29    
Precipitation  
Precipitation 0.00 in - - ()
Sea Level Pressure  
Sea Level Pressure 30.59 in    
Wind  
Wind Speed 13 mph (NW)    
Max Wind Speed 18 mph    
Max Gust Speed 25 mph    
Visibility 10 miles    
Events      
Averages and records for this station are not official NWS values.
T = Trace of Precipitation, MM = Missing Value Source: NWS Daily Summary

Daily Weather History Graph

Daily Weather History Graph

Search for Another Location

Airport:

Trip Planner

Search our weather history database for the weather conditions in past years. The results will help you decide how hot, cold, wet, or windy it might be!

Date:

Astronomy

Jan. 02, 2012 Rise Set
Actual Time 7:52 AM CST 5:05 PM CST
Civil Twilight 7:20 AM CST 5:36 PM CST
Nautical Twilight 6:45 AM CST 6:11 PM CST
Astronomical Twilight 6:11 AM CST 6:45 PM CST
Moon 12:24 PM CST (1/2) 1:43 AM CST (1/2)
Length of Visible Light 10h 16m
Length of Day
9h 13m
Waxing Gibbous, 64% of the Moon is Illuminated
Jan 2
Waxing Gibbous
Jan 9
Full
Jan 16
Last Quarter
Jan 23
New
Jan 30
First Quarter

Hourly Weather History & Observations

Time (CST) Temp. Windchill Dew Point Humidity Pressure Visibility Wind Dir Wind Speed Gust Speed Precip Events Conditions
12:54 AM 24.1 °F 12.0 °F 12.0 °F 60% 30.56 in 10.0 mi NW 13.8 mph - N/A   Clear
1:54 AM 24.1 °F 11.5 °F 10.9 °F 57% 30.58 in 10.0 mi NW 15.0 mph - N/A   Clear
2:54 AM 21.9 °F 10.4 °F 10.0 °F 60% 30.59 in 10.0 mi NW 11.5 mph - N/A   Clear
3:54 AM 23.0 °F 8.7 °F 9.0 °F 55% 30.60 in 10.0 mi WNW 18.4 mph - N/A   Clear
4:54 AM 21.0 °F 7.6 °F 9.0 °F 60% 30.58 in 10.0 mi WNW 15.0 mph - N/A   Clear
5:54 AM 19.9 °F 6.7 °F 8.1 °F 60% 30.59 in 10.0 mi West 13.8 mph - N/A   Clear
6:54 AM 19.0 °F 5.6 °F 8.1 °F 62% 30.60 in 10.0 mi WNW 13.8 mph - N/A   Clear
7:54 AM 19.0 °F 5.6 °F 8.1 °F 62% 30.62 in 10.0 mi WNW 13.8 mph - N/A   Clear
8:54 AM 21.0 °F 6.6 °F 8.1 °F 57% 30.65 in 10.0 mi WNW 17.3 mph - N/A   Clear
10:54 AM 26.1 °F 12.7 °F 9.0 °F 49% 30.66 in 10.0 mi NW 18.4 mph - N/A   Clear
11:54 AM 28.9 °F 16.9 °F 7.0 °F 40% 30.64 in 10.0 mi NNW 17.3 mph 25.3 mph N/A   Clear
12:54 PM 30.9 °F 19.1 °F 5.0 °F 33% 30.62 in 10.0 mi NNW 18.4 mph - N/A   Clear
1:54 PM 32.0 °F 21.2 °F 5.0 °F 32% 30.61 in 10.0 mi NNW 16.1 mph - N/A   Clear
2:54 PM 32.0 °F 21.2 °F 3.9 °F 31% 30.60 in 10.0 mi NNW 16.1 mph 24.2 mph N/A   Clear
3:54 PM 30.9 °F 20.2 °F 1.9 °F 29% 30.61 in 10.0 mi NNW 15.0 mph - N/A   Clear
4:54 PM 26.1 °F 18.4 °F 3.9 °F 39% 30.60 in 10.0 mi NNW 6.9 mph - N/A   Clear
5:54 PM 21.9 °F 17.2 °F 3.9 °F 46% 30.59 in 10.0 mi North 3.5 mph - N/A   Clear
6:54 PM 19.0 °F 13.9 °F 5.0 °F 54% 30.58 in 10.0 mi NW 3.5 mph - N/A   Clear
7:54 PM 15.1 °F 9.4 °F 3.9 °F 61% 30.57 in 10.0 mi NW 3.5 mph - N/A   Clear
8:54 PM 14.0 °F 8.2 °F 5.0 °F 67% 30.56 in 10.0 mi Variable 3.5 mph - N/A   Clear
9:54 PM 10.9 °F 4.7 °F 3.0 °F 70% 30.55 in 10.0 mi WSW 3.5 mph - N/A   Clear
10:54 PM 10.9 °F 1.4 °F 5.0 °F 77% 30.53 in 10.0 mi SSE 5.8 mph - N/A   Clear
11:54 PM 10.9 °F 4.7 °F 3.9 °F 73% 30.51 in 10.0 mi SE 3.5 mph - N/A   Clear